PSLV R/B, 44805

Orbit data source: Space-Track

PSLV R/B, 44805 is space debris in SSO originally from a launch on Wed, 27 Nov 2019 UTC launched from the Sirharikota (SRI). Debris objects in space refer to the collection of defunct objects orbiting the Earth. Examples of debris include non-operational satellites, rocket bodies, and fragments generated from explosions, collisions, or faulty payload assembly.

Loading next visibility...
Identifier
44805, 2019-081B
Orbit
SSO
Country
Flag of ININ / IND
Related business
Manufacturer
VSSC/LPSC
Mission
Spacecraft
Bus & Motor
PS-4, Unknown motor
Mass
920 kg wet, 920 kg dry
Launch date (UTC)
2019-11-27 (7 years ago)
Launch vehicle
Unknown
Launch site
Sirharikota (SRI)
Object type
Payload
Rocket body
Debris
Shape & HBR
Cyl + Cyl + 2 Nozzle, 1.5 m
Radar Cross Section
3.727 m², Large (>1 m²)

Expand to show TLE details & history
Last TLE update: 2 days ago

TLE from 2 days ago
0 PSLV R/B
1 44805U 19081B   26171.36188808  .00023584  00000-0  33244-3 0  9990
2 44805  97.1739 211.4424 0019284  89.9130 270.4335 15.56392682364814
Epoch: 2026-06-20T08:41Z
TLE epoch observation values (Epoch: 2026-06-20T08:41:07.130Z)
Latitude
-0.00002°
Longitude
172.58509°
Altitude
401.18 km
Speed
7.67 km/s
True Right ascension
14h 05m 46s
True Declination
0° 00' 00"
Sunlit
Object was in full shadow at epoch
Visualization orbit readout
Latitude
Unknown
Longitude
Unknown
Altitude
Unknown
Speed
Unknown
Apparent Right ascension
Unknown
Apparent Declination
Unknown
Sunlit
N/A
Visualization observer readout
Local Sidereal Time
00:50:53
Azimuth
Unknown
Elevation
Unknown
Doppler factor
Unknown
Orbital elements
Apogee altitude
408.076 km
Perigee altitude
381.953 km
Semi-major axis
6,773.152 km
Eccentricity
0.00193
Inclination
97.1739°
RAAN
211.4424°
Arg. of periapsis
89.913°
True anomaly
270.21252°
Mean anomaly
270.4335°
Eccentric anomaly
270.32301°
Mean motion
3.89365 °/min
Orbital period
92.46 mins
BSTAR
0.00033244
Loading maneuver chart data...
Computing Atmospheric mass density...
Loading historical data...
Loading historical data...
Loading historical data...
Loading historical data...
Loading historical data...
Loading historical data...
Loading historical data...

Documentation

Showing up to 5 results
|